Time,TemperatureF,DewpointF,PressureIn,WindDirection,WindDirectionDegrees,WindSpeedMPH,WindSpeedGustMPH,Humidity,HourlyPrecipIn,Conditions,Clouds,dailyrainin,SoftwareType,DateUTC
2013-03-20 00:03:00,30.0,20.0,30.03,WSW,244,6.0,11.0,66,0.00,,,0.00,,2013-03-20 04:03:00,
2013-03-20 00:12:00,30.0,20.0,30.03,WSW,244,6.0,11.0,66,0.00,,,0.00,,2013-03-20 04:12:00,
2013-03-20 00:23:00,30.0,20.0,30.03,WSW,257,6.0,16.0,67,0.00,,,0.00,,2013-03-20 04:23:00,
2013-03-20 00:32:00,30.0,21.0,30.03,SW,229,10.0,17.0,68,0.00,,,0.00,,2013-03-20 04:32:00,
2013-03-20 00:43:00,30.0,21.0,30.03,SW,229,10.0,17.0,68,0.00,,,0.00,,2013-03-20 04:43:00,
2013-03-20 00:53:00,30.0,21.0,30.03,WSW,252,7.0,13.0,68,0.00,,,0.00,,2013-03-20 04:53:00,
2013-03-20 01:03:00,29.0,20.0,30.03,WSW,238,7.0,13.0,69,0.00,,,0.00,,2013-03-20 05:03:00,
2013-03-20 01:13:00,29.0,20.0,30.03,WSW,245,6.0,16.0,70,0.00,,,0.00,,2013-03-20 05:13:00,
2013-03-20 01:23:00,29.0,20.0,30.03,WSW,245,6.0,16.0,70,0.00,,,0.00,,2013-03-20 05:23:00,
2013-03-20 01:32:00,29.0,20.0,30.03,WSW,252,6.0,15.0,70,0.00,,,0.00,,2013-03-20 05:32:00,
2013-03-20 01:42:00,29.0,20.0,30.03,WSW,252,6.0,15.0,70,0.00,,,0.00,,2013-03-20 05:42:00,
2013-03-20 01:53:00,29.0,21.0,30.02,WSW,237,7.0,16.0,71,0.00,,,0.00,,2013-03-20 05:53:00,
2013-03-20 02:02:00,28.0,20.0,30.02,WSW,240,7.0,13.0,71,0.00,,,0.00,,2013-03-20 06:02:00,
2013-03-20 02:13:00,28.0,20.0,30.02,WSW,240,7.0,13.0,71,0.00,,,0.00,,2013-03-20 06:13:00,
2013-03-20 02:22:00,28.0,20.0,30.02,WSW,250,6.0,13.0,72,0.00,,,0.00,,2013-03-20 06:22:00,
2013-03-20 02:32:00,28.0,20.0,30.02,WSW,240,6.0,15.0,70,0.00,,,0.00,,2013-03-20 06:32:00,
2013-03-20 02:42:00,28.0,20.0,30.02,WSW,240,6.0,15.0,70,0.00,,,0.00,,2013-03-20 06:42:00,
2013-03-20 02:53:00,28.0,20.0,30.02,WSW,249,6.0,17.0,71,0.00,,,0.00,,2013-03-20 06:53:00,
2013-03-20 03:02:00,28.0,20.0,30.02,West,261,5.0,16.0,72,0.00,,,0.00,,2013-03-20 07:02:00,
2013-03-20 03:12:00,28.0,20.0,30.02,West,261,5.0,16.0,72,0.00,,,0.00,,2013-03-20 07:12:00,
2013-03-20 03:22:00,27.0,19.0,30.02,WSW,241,7.0,13.0,72,0.00,,,0.00,,2013-03-20 07:22:00,
2013-03-20 03:32:00,27.0,19.0,30.02,West,275,5.0,9.0,72,0.00,,,0.00,,2013-03-20 07:32:00,
2013-03-20 03:42:00,27.0,19.0,30.02,West,275,5.0,9.0,72,0.00,,,0.00,,2013-03-20 07:42:00,
2013-03-20 03:52:00,27.0,19.0,30.01,WSW,252,5.0,12.0,72,0.00,,,0.00,,2013-03-20 07:52:00,
2013-03-20 04:02:00,27.0,20.0,30.01,WSW,239,5.0,10.0,73,0.00,,,0.00,,2013-03-20 08:02:00,
2013-03-20 04:12:00,27.0,20.0,30.01,WSW,239,5.0,10.0,73,0.00,,,0.00,,2013-03-20 08:12:00,
2013-03-20 04:22:00,26.0,19.0,30.01,SW,235,5.0,13.0,73,0.00,,,0.00,,2013-03-20 08:22:00,
2013-03-20 04:32:00,26.0,19.0,29.99,West,273,4.0,10.0,73,0.00,,,0.00,,2013-03-20 08:32:00,
2013-03-20 04:42:00,26.0,19.0,29.99,West,273,4.0,10.0,73,0.00,,,0.00,,2013-03-20 08:42:00,
2013-03-20 04:52:00,26.0,19.0,29.99,SW,223,3.0,7.0,75,0.00,,,0.00,,2013-03-20 08:52:00,
2013-03-20 05:02:00,26.0,19.0,29.99,SW,219,3.0,11.0,75,0.00,,,0.00,,2013-03-20 09:02:00,
2013-03-20 05:12:00,26.0,19.0,29.99,SW,219,3.0,11.0,75,0.00,,,0.00,,2013-03-20 09:12:00,
2013-03-20 05:22:00,25.0,19.0,30.00,SW,234,2.0,10.0,76,0.00,,,0.00,,2013-03-20 09:22:00,
2013-03-20 05:33:00,25.0,19.0,30.00,SW,234,2.0,10.0,76,0.00,,,0.00,,2013-03-20 09:33:00,
2013-03-20 05:43:00,25.0,19.0,30.00,SW,234,2.0,10.0,76,0.00,,,0.00,,2013-03-20 09:43:00,
2013-03-20 05:53:00,25.0,19.0,30.00,West,273,4.0,7.0,77,0.00,,,0.00,,2013-03-20 09:53:00,
2013-03-20 06:03:00,25.0,19.0,30.00,West,262,4.0,7.0,76,0.00,,,0.00,,2013-03-20 10:03:00,
2013-03-20 06:13:00,25.0,19.0,30.00,West,262,4.0,7.0,76,0.00,,,0.00,,2013-03-20 10:13:00,
2013-03-20 06:23:00,25.0,19.0,30.00,WSW,255,3.0,8.0,77,0.00,,,0.00,,2013-03-20 10:23:00,
2013-03-20 06:33:00,25.0,19.0,30.00,WSW,256,3.0,7.0,77,0.00,,,0.00,,2013-03-20 10:33:00,
2013-03-20 06:43:00,25.0,19.0,30.00,WSW,256,3.0,7.0,77,0.00,,,0.00,,2013-03-20 10:43:00,
2013-03-20 06:53:00,25.0,19.0,30.00,SW,227,3.0,7.0,78,0.00,,,0.00,,2013-03-20 10:53:00,
2013-03-20 07:03:00,26.0,20.0,30.01,West,259,3.0,8.0,78,0.00,,,0.00,,2013-03-20 11:03:00,
2013-03-20 07:12:00,26.0,20.0,30.01,West,259,3.0,8.0,78,0.00,,,0.00,,2013-03-20 11:12:00,
2013-03-20 07:22:00,26.0,19.0,30.01,WSW,252,6.0,12.0,75,0.00,,,0.00,,2013-03-20 11:22:00,
2013-03-20 07:32:00,25.0,18.0,30.01,WNW,286,6.0,13.0,73,0.00,,,0.00,,2013-03-20 11:32:00,
2013-03-20 07:42:00,25.0,18.0,30.01,WNW,286,6.0,13.0,73,0.00,,,0.00,,2013-03-20 11:42:00,
2013-03-20 07:52:00,25.0,17.0,30.02,WSW,253,5.0,9.0,72,0.00,,,0.00,,2013-03-20 11:52:00,
2013-03-20 08:02:00,25.0,18.0,30.02,West,264,3.0,7.0,73,0.00,,,0.00,,2013-03-20 12:02:00,
2013-03-20 08:12:00,25.0,18.0,30.02,West,264,3.0,7.0,73,0.00,,,0.00,,2013-03-20 12:12:00,
2013-03-20 08:22:00,24.0,17.0,30.02,West,262,5.0,12.0,73,0.00,,,0.00,,2013-03-20 12:22:00,
2013-03-20 08:32:00,24.0,17.0,30.02,West,267,4.0,7.0,74,0.00,,,0.00,,2013-03-20 12:32:00,
2013-03-20 08:42:00,24.0,17.0,30.02,West,267,4.0,7.0,74,0.00,,,0.00,,2013-03-20 12:42:00,
2013-03-20 08:52:00,25.0,17.0,30.02,WSW,249,3.0,10.0,72,0.00,,,0.00,,2013-03-20 12:52:00,
2013-03-20 09:03:00,25.0,17.0,30.02,WSW,257,4.0,8.0,72,0.00,,,0.00,,2013-03-20 13:03:00,
2013-03-20 09:12:00,25.0,17.0,30.02,WSW,257,4.0,8.0,72,0.00,,,0.00,,2013-03-20 13:12:00,
2013-03-20 09:22:00,26.0,19.0,30.02,WNW,296,6.0,11.0,73,0.00,,,0.00,,2013-03-20 13:22:00,
2013-03-20 09:32:00,26.0,18.0,30.02,WSW,248,6.0,11.0,71,0.00,,,0.00,,2013-03-20 13:32:00,
2013-03-20 09:42:00,26.0,18.0,30.02,WSW,248,6.0,11.0,71,0.00,,,0.00,,2013-03-20 13:42:00,
2013-03-20 09:53:00,26.0,19.0,30.02,WSW,251,5.0,10.0,74,0.00,,,0.00,,2013-03-20 13:53:00,
2013-03-20 10:03:00,27.0,19.0,30.02,WNW,289,6.0,14.0,72,0.00,,,0.00,,2013-03-20 14:03:00,
2013-03-20 10:12:00,27.0,19.0,30.02,WNW,289,6.0,14.0,72,0.00,,,0.00,,2013-03-20 14:12:00,
2013-03-20 10:23:00,27.0,19.0,30.01,WNW,286,10.0,18.0,70,0.00,,,0.00,,2013-03-20 14:23:00,
2013-03-20 10:34:00,28.0,20.0,30.01,West,263,6.0,16.0,70,0.00,,,0.00,,2013-03-20 14:34:00,
2013-03-20 10:42:00,28.0,20.0,30.01,West,263,6.0,16.0,70,0.00,,,0.00,,2013-03-20 14:42:00,
2013-03-20 10:53:00,28.0,19.0,30.01,SW,229,5.0,14.0,69,0.00,,,0.00,,2013-03-20 14:53:00,
2013-03-20 11:02:00,27.0,18.0,30.01,SW,221,4.0,15.0,68,0.00,,,0.00,,2013-03-20 15:02:00,
2013-03-20 11:12:00,29.0,18.0,30.01,WSW,248,7.0,14.0,64,0.00,,,0.00,,2013-03-20 15:12:00,
2013-03-20 11:22:00,29.0,18.0,30.01,WSW,248,7.0,14.0,64,0.00,,,0.00,,2013-03-20 15:22:00,
2013-03-20 11:33:00,28.0,18.0,30.01,SW,214,5.0,14.0,65,0.00,,,0.00,,2013-03-20 15:33:00,
2013-03-20 11:43:00,28.0,18.0,30.01,SW,214,5.0,14.0,65,0.00,,,0.00,,2013-03-20 15:43:00,
2013-03-20 11:53:00,29.0,18.0,30.01,West,264,8.0,16.0,63,0.00,,,0.00,,2013-03-20 15:53:00,
2013-03-20 12:03:00,29.0,18.0,30.01,West,264,8.0,16.0,63,0.00,,,0.00,,2013-03-20 16:03:00,
2013-03-20 12:13:00,29.0,18.0,30.01,West,264,8.0,16.0,63,0.00,,,0.00,,2013-03-20 16:13:00,
2013-03-20 12:23:00,29.0,17.0,30.00,West,259,9.0,14.0,60,0.00,,,0.00,,2013-03-20 16:23:00,
2013-03-20 12:33:00,29.0,16.0,30.00,WSW,248,5.0,14.0,58,0.00,,,0.00,,2013-03-20 16:33:00,
2013-03-20 12:43:00,29.0,16.0,30.00,WSW,248,5.0,14.0,58,0.00,,,0.00,,2013-03-20 16:43:00,
2013-03-20 12:53:00,29.0,17.0,30.00,SW,236,7.0,13.0,61,0.00,,,0.00,,2013-03-20 16:53:00,
2013-03-20 13:03:00,28.0,16.0,30.00,SSW,209,6.0,16.0,61,0.00,,,0.00,,2013-03-20 17:03:00,
2013-03-20 13:12:00,28.0,16.0,30.00,SSW,209,6.0,16.0,61,0.00,,,0.00,,2013-03-20 17:12:00,
2013-03-20 13:22:00,29.0,17.0,30.00,WSW,255,7.0,14.0,61,0.00,,,0.00,,2013-03-20 17:22:00,
2013-03-20 13:32:00,29.0,18.0,29.99,West,259,6.0,15.0,62,0.00,,,0.00,,2013-03-20 17:32:00,
2013-03-20 13:42:00,29.0,18.0,29.99,West,259,6.0,15.0,62,0.00,,,0.00,,2013-03-20 17:42:00,
2013-03-20 13:53:00,32.0,19.0,29.99,WSW,254,7.0,14.0,58,0.00,,,0.00,,2013-03-20 17:53:00,
2013-03-20 14:02:00,30.0,16.0,29.99,West,260,7.0,17.0,56,0.00,,,0.00,,2013-03-20 18:02:00,
2013-03-20 14:12:00,30.0,16.0,29.99,West,260,7.0,17.0,56,0.00,,,0.00,,2013-03-20 18:12:00,
2013-03-20 14:22:00,30.0,17.0,29.99,WNW,288,6.0,15.0,59,0.00,,,0.00,,2013-03-20 18:22:00,
2013-03-20 14:33:00,29.0,16.0,29.99,SW,234,7.0,15.0,58,0.00,,,0.00,,2013-03-20 18:33:00,
2013-03-20 14:43:00,29.0,16.0,29.99,SW,234,7.0,15.0,58,0.00,,,0.00,,2013-03-20 18:43:00,
2013-03-20 14:53:00,29.0,17.0,29.99,West,280,6.0,14.0,60,0.00,,,0.00,,2013-03-20 18:53:00,
2013-03-20 15:02:00,29.0,16.0,29.99,WSW,251,8.0,15.0,58,0.00,,,0.00,,2013-03-20 19:02:00,
2013-03-20 15:12:00,29.0,16.0,29.99,WSW,251,8.0,15.0,58,0.00,,,0.00,,2013-03-20 19:12:00,
2013-03-20 15:22:00,28.0,15.0,29.99,SSW,211,7.0,14.0,58,0.00,,,0.00,,2013-03-20 19:22:00,
2013-03-20 15:32:00,30.0,17.0,29.98,West,262,9.0,17.0,57,0.00,,,0.00,,2013-03-20 19:32:00,
2013-03-20 15:42:00,30.0,17.0,29.98,West,262,9.0,17.0,57,0.00,,,0.00,,2013-03-20 19:42:00,
2013-03-20 15:53:00,30.0,17.0,29.98,SW,234,10.0,18.0,58,0.00,,,0.00,,2013-03-20 19:53:00,
2013-03-20 16:02:00,30.0,17.0,29.98,West,281,10.0,18.0,58,0.00,,,0.00,,2013-03-20 20:02:00,
2013-03-20 16:13:00,30.0,17.0,29.98,West,281,10.0,18.0,58,0.00,,,0.00,,2013-03-20 20:13:00,
2013-03-20 16:22:00,30.0,16.0,29.97,WSW,254,10.0,21.0,56,0.00,,,0.00,,2013-03-20 20:22:00,
2013-03-20 16:32:00,29.0,15.0,29.97,WSW,251,8.0,18.0,56,0.00,,,0.00,,2013-03-20 20:32:00,
2013-03-20 16:42:00,29.0,15.0,29.97,WSW,251,8.0,18.0,56,0.00,,,0.00,,2013-03-20 20:42:00,
2013-03-20 16:53:00,29.0,15.0,29.98,West,264,6.0,18.0,56,0.00,,,0.00,,2013-03-20 20:53:00,
2013-03-20 17:02:00,29.0,15.0,29.98,West,261,10.0,20.0,56,0.00,,,0.00,,2013-03-20 21:02:00,
2013-03-20 17:12:00,29.0,15.0,29.98,West,261,10.0,20.0,56,0.00,,,0.00,,2013-03-20 21:12:00,
2013-03-20 17:22:00,29.0,14.0,29.98,SW,220,10.0,22.0,54,0.00,,,0.00,,2013-03-20 21:22:00,
2013-03-20 17:33:00,28.0,13.0,29.98,West,279,9.0,17.0,53,0.00,,,0.00,,2013-03-20 21:33:00,
2013-03-20 17:42:00,28.0,13.0,29.98,West,279,9.0,17.0,53,0.00,,,0.00,,2013-03-20 21:42:00,
2013-03-20 17:53:00,29.0,14.0,29.98,West,263,9.0,14.0,52,0.00,,,0.00,,2013-03-20 21:53:00,
2013-03-20 18:03:00,28.0,13.0,29.98,WSW,257,8.0,15.0,53,0.00,,,0.00,,2013-03-20 22:03:00,
2013-03-20 18:13:00,28.0,13.0,29.98,WSW,257,8.0,15.0,53,0.00,,,0.00,,2013-03-20 22:13:00,
2013-03-20 18:23:00,27.0,13.0,29.99,WSW,242,4.0,21.0,55,0.00,,,0.00,,2013-03-20 22:23:00,
2013-03-20 18:33:00,26.0,13.0,29.99,West,262,4.0,11.0,58,0.00,,,0.00,,2013-03-20 22:33:00,
2013-03-20 18:42:00,26.0,13.0,29.99,West,262,4.0,11.0,58,0.00,,,0.00,,2013-03-20 22:42:00,
2013-03-20 18:53:00,26.0,12.0,30.00,WNW,291,5.0,17.0,55,0.00,,,0.00,,2013-03-20 22:53:00,
2013-03-20 19:02:00,26.0,13.0,30.00,WSW,249,6.0,14.0,58,0.00,,,0.00,,2013-03-20 23:02:00,
2013-03-20 19:12:00,26.0,13.0,30.00,WSW,249,6.0,14.0,58,0.00,,,0.00,,2013-03-20 23:12:00,
2013-03-20 19:23:00,25.0,12.0,30.01,West,260,8.0,18.0,58,0.00,,,0.00,,2013-03-20 23:23:00,
2013-03-20 19:32:00,24.0,12.0,30.01,West,279,7.0,18.0,59,0.00,,,0.00,,2013-03-20 23:32:00,
2013-03-20 19:42:00,24.0,12.0,30.01,West,279,7.0,18.0,59,0.00,,,0.00,,2013-03-20 23:42:00,
2013-03-20 19:53:00,23.0,11.0,30.02,West,271,5.0,16.0,60,0.00,,,0.00,,2013-03-20 23:53:00,
2013-03-20 20:02:00,22.0,11.0,30.02,West,277,6.0,15.0,61,0.00,,,0.00,,2013-03-21 00:02:00,
2013-03-20 20:13:00,22.0,11.0,30.02,West,277,6.0,15.0,61,0.00,,,0.00,,2013-03-21 00:13:00,
2013-03-20 20:23:00,22.0,11.0,30.02,WNW,285,5.0,11.0,63,0.00,,,0.00,,2013-03-21 00:23:00,
2013-03-20 20:33:00,22.0,12.0,30.03,West,270,4.0,13.0,64,0.00,,,0.00,,2013-03-21 00:33:00,
2013-03-20 20:42:00,22.0,12.0,30.03,West,270,4.0,13.0,64,0.00,,,0.00,,2013-03-21 00:42:00,
2013-03-20 20:53:00,21.0,11.0,30.03,West,281,5.0,11.0,65,0.00,,,0.00,,2013-03-21 00:53:00,
2013-03-20 21:02:00,21.0,12.0,30.02,West,261,4.0,10.0,67,0.00,,,0.00,,2013-03-21 01:02:00,
2013-03-20 21:12:00,21.0,12.0,30.02,West,261,4.0,10.0,67,0.00,,,0.00,,2013-03-21 01:12:00,
2013-03-20 21:22:00,21.0,12.0,30.03,West,279,5.0,13.0,67,0.00,,,0.00,,2013-03-21 01:22:00,
2013-03-20 21:33:00,21.0,12.0,30.03,West,273,3.0,9.0,68,0.00,,,0.00,,2013-03-21 01:33:00,
2013-03-20 21:42:00,21.0,12.0,30.03,West,273,3.0,9.0,68,0.00,,,0.00,,2013-03-21 01:42:00,
2013-03-20 21:52:00,21.0,12.0,30.03,WSW,247,4.0,8.0,68,0.00,,,0.00,,2013-03-21 01:52:00,
2013-03-20 22:02:00,21.0,13.0,30.03,West,269,4.0,11.0,70,0.00,,,0.00,,2013-03-21 02:02:00,
2013-03-20 22:13:00,21.0,13.0,30.03,West,269,4.0,11.0,70,0.00,,,0.00,,2013-03-21 02:13:00,
2013-03-20 22:22:00,20.0,12.0,30.03,WSW,257,3.0,8.0,71,0.00,,,0.00,,2013-03-21 02:22:00,
2013-03-20 22:33:00,20.0,12.0,30.03,WSW,257,3.0,8.0,71,0.00,,,0.00,,2013-03-21 02:33:00,
2013-03-20 22:42:00,20.0,12.0,30.03,WSW,257,3.0,8.0,71,0.00,,,0.00,,2013-03-21 02:42:00,
2013-03-20 22:51:00,20.0,12.0,30.03,WSW,257,3.0,8.0,71,0.00,,,0.00,,2013-03-21 02:51:00,
2013-03-20 23:02:00,20.0,13.0,30.02,WSW,254,3.0,8.0,74,0.00,,,0.00,,2013-03-21 03:02:00,
2013-03-20 23:12:00,20.0,13.0,30.02,WSW,254,3.0,8.0,74,0.00,,,0.00,,2013-03-21 03:12:00,
2013-03-20 23:22:00,20.0,13.0,30.02,West,267,2.0,5.0,75,0.00,,,0.00,,2013-03-21 03:22:00,
2013-03-20 23:33:00,19.0,13.0,30.02,WNW,282,3.0,6.0,76,0.00,,,0.00,,2013-03-21 03:33:00,
2013-03-20 23:43:00,19.0,13.0,30.02,WNW,282,3.0,6.0,76,0.00,,,0.00,,2013-03-21 03:43:00,
2013-03-20 23:53:00,19.0,13.0,30.03,WSW,246,3.0,8.0,78,0.00,,,0.00,,2013-03-21 03:53:00,